Retour au catalogue

TITAN 3C TRANSTAGE DEB

ActifGEO
NORAD 43513·DEBRIS·🇺🇸 United States

Lancé Feb 9, 1969 depuis Cape Canaveral Space Force Station

Loading…

TLE

FraisSource: Space-Track

Époque: Sep 13, 2026, 05:46 UTC

1 43513U 69013R   26256.24081477 -.00000084  00000-0  00000+0 0  9991
2 43513   1.6259 124.0106 0046984 273.5848  86.5677  0.95267543 29228

Suivez TITAN 3C TRANSTAGE DEB en temps réel avec AllMySat

Download on the App Store